Weather History for Juan Santamaria, Costa Rica

Change the Weather History Date:

Thursday, August 14, 2014

  Actual Average Record
Temperature  
Mean Temperature 78 °F -  
Max Temperature 86 °F 80 °F - ()
Min Temperature 69 °F 64 °F - ()
Cooling Degree Days 12    
Growing Degree Days 28 (Base 50)    
Moisture  
Dew Point 61 °F    
Average Humidity 57    
Maximum Humidity 73    
Minimum Humidity 36    
Precipitation  
Precipitation 0.00 in 0.41 in - ()
Sea Level Pressure  
Sea Level Pressure 29.94 in    
Wind  
Wind Speed 10 mph ()    
Max Wind Speed 18 mph    
Max Gust Speed 23 mph    
Visibility 8.0 miles    
Events      
T = Trace of Precipitation, MM = Missing Value Source: Averaged Metar Reports

Daily Weather History Graph

Daily Weather History Graph

Search for Another Location

Airport:

Trip Planner

Search our weather history database for the weather conditions in past years. The results will help you decide how hot, cold, wet, or windy it might be!

Date:

Astronomy

Aug. 14, 2014 Rise Set
Actual Time 5:27 AM CST 5:55 PM CST
Civil Twilight 5:05 AM CST 6:16 PM CST
Nautical Twilight 4:40 AM CST 6:42 PM CST
Astronomical Twilight 4:14 AM CST 7:07 PM CST
Moon 9:21 PM CST (8/14) 9:05 AM CST (8/14)
Length of Visible Light 13h 10m
Length of Day
12h 27m
Waning Gibbous, 78% of the Moon is Illuminated
Aug 14
Waning Gibbous
Aug 17
Last Quarter
Aug 25
New
Sep 2
First Quarter
Sep 8
Full

Hourly Weather History & Observations

Time (CST) Temp. Heat Index Dew Point Humidity Pressure Visibility Wind Dir Wind Speed Gust Speed Precip Events Conditions
12:00 AM 73 °F - 60 °F 55% 29.83 in 12 mi East 11.5 mph - -   Partly Cloudy
12:00 AM 73.4 °F - 60.8 °F 65% 30.00 in - East 11.5 mph - N/A   Clear
1:00 AM 71.6 °F - 62.6 °F 73% 29.97 in - East 12.7 mph - N/A   Clear
2:00 AM 71.6 °F - 60.8 °F 69% 29.96 in - East 9.2 mph - N/A   Clear
3:00 AM 71 °F - 60 °F 60% 29.78 in 12 mi NE 5.8 mph - -   Partly Cloudy
3:00 AM 69.8 °F - 60.8 °F 73% 29.95 in - NE 5.8 mph - N/A   Clear
4:00 AM 73.4 °F - 57.2 °F 57% 29.96 in - ESE 9.2 mph - N/A   Clear
5:00 AM 73.4 °F - 59.0 °F 61% 29.99 in - East 9.2 mph - N/A   Clear
6:00 AM 70 °F - 60 °F 64% 29.58 in 12 mi SE 5.8 mph - -   Scattered Clouds
6:00 AM 69.8 °F - 60.8 °F 73% 30.00 in 6.2 mi SE 5.8 mph - N/A   Scattered Clouds
7:00 AM 71.6 °F - 60.8 °F 69% 30.02 in 6.2 mi East 17.3 mph - N/A   Scattered Clouds
8:00 AM 73.4 °F - 60.8 °F 65% 30.04 in 6.2 mi East 17.3 mph - N/A   Scattered Clouds
9:00 AM 80 °F - 61 °F 42% 29.88 in 12 mi East 16.1 mph - -   Scattered Clouds
9:00 AM 78.8 °F - 60.8 °F 54% 30.04 in 6.2 mi East 16.1 mph - N/A   Partly Cloudy
10:00 AM 78.8 °F - 59.0 °F 51% 30.03 in 6.2 mi ESE 11.5 mph 23.0 mph N/A   Scattered Clouds
11:00 AM 82.4 °F 82.5 °F 59.0 °F 45% 30.04 in 6.2 mi East 15.0 mph - N/A   Scattered Clouds
12:00 PM 84 °F - 61 °F 36% 29.85 in 12 mi ENE 13.8 mph - -   Scattered Clouds
12:00 PM 84.2 °F 84.4 °F 60.8 °F 45% 30.03 in 6.2 mi ENE 13.8 mph - N/A   Mostly Cloudy
1:00 PM 86.0 °F 86.1 °F 60.8 °F 43% 29.98 in 6.2 mi ENE 16.1 mph - N/A   Mostly Cloudy
2:00 PM 84.2 °F 84.4 °F 60.8 °F 45% 29.95 in 6.2 mi ENE 18.4 mph - N/A   Mostly Cloudy
3:00 PM 82 °F - 61 °F 38% 29.80 in 12 mi NE 13.8 mph - -   Partly Cloudy
3:00 PM 82.4 °F 82.9 °F 60.8 °F 48% 29.96 in 6.2 mi NE 13.8 mph - N/A   Mostly Cloudy
4:00 PM 80.6 °F 81.5 °F 60.8 °F 51% 29.94 in 6.2 mi ENE 9.2 mph - N/A   Mostly Cloudy
5:00 PM 77.0 °F - 59.0 °F 54% 29.95 in 6.2 mi ENE 11.5 mph 23.0 mph N/A   Mostly Cloudy
6:00 PM 76 °F - 60 °F 49% 29.83 in 12 mi East 2.3 mph - -   Scattered Clouds
6:00 PM 75.2 °F - 60.8 °F 61% 29.97 in 6.2 mi East 2.3 mph - N/A   Mostly Cloudy
7:00 PM 73.4 °F - 60.8 °F 65% 29.97 in 6.2 mi ENE 4.6 mph - N/A   Mostly Cloudy
8:00 PM 73.4 °F - 62.6 °F 69% 29.97 in 6.2 mi East 11.5 mph 23.0 mph N/A   Mostly Cloudy
9:00 PM 74 °F - 62 °F 56% 29.80 in 12 mi East 13.8 mph - -   Scattered Clouds
9:00 PM 73.4 °F - 60.8 °F 65% 29.98 in 6.2 mi East 13.8 mph - N/A   Scattered Clouds
10:00 PM 73.4 °F - 62.6 °F 69% 29.98 in 6.2 mi East 11.5 mph 23.0 mph N/A   Scattered Clouds
11:00 PM 73.4 °F - 60.8 °F 65% 29.97 in 6.2 mi East 15.0 mph - N/A   Scattered Clouds